Regional Weather Roundup
Issued by NWS State College, PA

Home | Current Version | Previous Version | Text Only | Print | Product List | Glossary On
Versions: 1 2 3 4 5 6 7 8 9 10 11 12 13 14 15 16 17 18 19 20 21 22 23 24 25 26 27 28 29 30 31 32 33 34 35 36 37 38 39 40 41 42 43 44 45 46 47 48 49 50
000
ASUS41 KCTP 272003
RWRCTP

REGIONAL WEATHER ROUNDUP
NATIONAL WEATHER SERVICE STATE COLLEGE PA
400 PM EDT SAT AUG 27 2016

Note: "fair" indicates few or no clouds below 12,000 feet with no
significant weather and/or obstructions to visibility.

* = STATION THAT DOES NOT REPORT PRECIPITATION /E.G. RAIN...SNOW...ETC/
    THUNDER OR FOG.

PAZ002>004-007>009-013>016-020>023-029>032-272100-
WESTERN PENNSYLVANIA

CITY           SKY/WX    TMP DP  RH WIND       PRES   REMARKS
ERIE           SUNNY     88  62  41 SE10      30.12F
MEADVILLE      CLOUDY    82  59  45 VRB5      30.17F
FRANKLIN*        N/A     82  63  51 SE9       30.18F
NEW CASTLE     FAIR      90  64  42 CALM      30.14F
BEAVER COUNTY  NOT AVBL
BUTLER*        NOT AVBL
PITTSBURGH INT CLOUDY    87  63  44 S8        30.14F
PITTSBURGH     SUNNY     88  66  48 SE8       30.14F
INDIANA*       SUNNY     88  64  45 S8        30.20F
LATROBE        PTSUNNY   86  66  51 SE9       30.16F
WASHINGTON CO* SUNNY     88  70  55 CALM      30.15F
$$

PAZ004>006-010>012-017>019-024>028-033>037-041-042-045-046-049>053-272100-
CENTRAL PENNSYLVANIA

CITY           SKY/WX    TMP DP  RH WIND       PRES   REMARKS
BRADFORD       MOSUNNY   80  62  54 SE6       30.22F
DUBOIS         CLOUDY    83  61  47 VRB7      30.19F
CLEARFIELD     CLOUDY    86  64  47 S8G17     30.20F
JOHNSTOWN      SUNNY     82  63  52 SE10      30.22F
ALTOONA        CLOUDY    85  65  51 SE8       30.19F
STATE COLLEGE  MOSUNNY   82  68  61 S5        30.20F
WILLIAMSPORT   MOSUNNY   86  62  44 E3        30.16F
SELINSGROVE    CLOUDY    86  69  56 S3        30.17F
FT INDIANTOWN  CLOUDY    87  62  43 S6        30.17F
CAPITAL CITY   MOSUNNY   89  64  43 E7        30.16F
HARRISBURG     CLOUDY    89  69  51 SE5       30.15F
YORK           MOSUNNY   87  66  49 SE5       30.16F
$$

PAZ038>040-043-044-047-048-054-055-060>062-067>071-272100-
EASTERN PENNSYLVANIA

CITY           SKY/WX    TMP DP  RH WIND       PRES   REMARKS
SCRANTON       MOSUNNY   86  65  49 VRB3      30.18F
MOUNT POCONO   SUNNY     78  58  49 CALM      30.25F
ALLENTOWN      MOSUNNY   89  60  37 VRB5      30.17S
QUAKERTOWN*    CLOUDY    88  59  37 CALM      30.18F
READING        MOSUNNY   87  64  46 NW5       30.15F
LANCASTER      CLOUDY    88  66  48 E3        30.16F
COATESVILLE    CLEAR     86  63  45 CALM      30.19F
POTTSTOWN      CLOUDY    89  58  34 VRB5      30.17F
BLUE BELL      MOSUNNY   86  61  42 CALM      30.16S
DOYLESTOWN     CLOUDY    89  62  40 N7        30.17S
WILLOW GROVE   NOT AVBL
NORTH PHILA    CLOUDY    91  59  33 SE8       30.17S
PHILADELPHIA   PTSUNNY   93  58  30 NE6       30.15S
$$




USA.gov is the U.S. government's official web portal to all federal, state and local government web resources and services.